This is the latest recevied weather packets stored in our database for station/object HJ3GNC-11. If no packets are shown the sender has not sent any weather packets the latest 10 day(s).
| Time | Temp. | Humidity | Pressure | Rain* | Wind** | Luminosity | Snow |
|---|---|---|---|---|---|---|---|
| 1777927224 | 15.56° C | 74% | 1013 hPa | 0 mm | - | - | - |
| 1777926279 | 17.78° C | 76% | 1014 hPa | 0 mm | - | - | - |
| 1777925307 | 16.67° C | 76% | 1014 hPa | 0 mm | - | - | - |
| 1777924363 | 15.56° C | 76% | 1014 hPa | 0 mm | - | - | - |
| 1777923421 | 14.44° C | 76% | 1014 hPa | 0 mm | - | - | - |
| 1777921531 | 17.22° C | 73% | 1014 hPa | 0 mm | - | - | - |
| 1777920590 | 17.22° C | 75% | 1014 hPa | 0 mm | - | - | - |
| 1777919647 | 17.22° C | 74% | 1014 hPa | 0 mm | - | - | - |
| 1777918704 | 18.33° C | 71% | 1014 hPa | 0 mm | - | - | - |
| 1777917762 | 17.22° C | 71% | 1014 hPa | 0 mm | - | - | - |
| 1777916819 | 18.33° C | 74% | 1014 hPa | 0 mm | - | - | - |
| 1777915874 | 17.22° C | 74% | 1014 hPa | 0 mm | - | - | - |
| 1777914933 | 19.44° C | 77% | 1015 hPa | 0 mm | - | - | - |
| 1777913988 | 18.33° C | 77% | 1015 hPa | 0 mm | - | - | - |
| 1777913029 | 17.22° C | 77% | 1015 hPa | 0 mm | - | - | - |
| 1777910866 | 19.44° C | 84% | 1016 hPa | 0 mm | - | - | - |
| 1777909635 | 18.33° C | 84% | 1016 hPa | 0 mm | - | - | - |
| 1777908534 | 17.22° C | 84% | 1017 hPa | 0 mm | - | - | - |
| 1777907200 | 16.11° C | 84% | 1017 hPa | 0 mm | - | - | - |
| 1777906024 | 15° C | 84% | 1017 hPa | 0 mm | - | - | - |
| 1777904965 | 17.22° C | 92% | 1018 hPa | 0 mm | - | - | - |
| 1777902581 | 16.11° C | 92% | 1018 hPa | 0 mm | - | - | - |
| 1777901350 | 15° C | 92% | 1018 hPa | 0 mm | - | - | - |
| 1777900220 | 13.89° C | 92% | 1018 hPa | 0 mm | - | - | - |
| 1777899159 | 12.78° C | 92% | 1018 hPa | 0 mm | - | - | - |
* Rain latest hour (hover to see other rain measurements)
** Current wind speed in m/s (hover to see current wind gust speed)